Location: Franzen
(48.6167°N, 15.3833°E)
Time: 12:52:38
(UTC+00:00)

Cosmos 2297 Rocket - Pass Details

Date: 22 April 2021
Orbit: 838 x 845 km, 71.0° (Epoch: 16 May)

Event Time Altitude Azimuth Distance (km) Brightness Sun altitude
Rises 20:42:17 0° 235° (SW) 3,386 5.4 -22.0°
Reaches altitude 10° 20:44:56 10° 245° (WSW) 2,456 4.7 -22.3°
Maximum altitude 20:50:04 35° 310° (NW) 1,339 3.8 -22.8°
Drops below altitude 10° 20:55:14 10° 16° (NNE) 2,472 5.1 -23.2°
Sets 20:57:55 0° 25° (NNE) 3,412 5.8 -23.5°
